Retour au catalogue

FENGYUN 1C DEB

ActifSSO
NORAD 30543·DEBRIS·🇨🇳 China

Lancé May 10, 1999 depuis Taiyuan Satellite Launch Center

Loading…

Prochains Passages (prochaines 24 heures)

TLE

FraisSource: Space-Track

Époque: Sep 14, 2026, 12:38 UTC

1 30543U 99025AKH 26257.52670279  .00000044  00000-0  53911-4 0  9991
2 30543  98.8317 264.3052 0071588 343.1098 168.7015 14.03921283  3736

Suivez FENGYUN 1C DEB en temps réel avec AllMySat

Download on the App Store